Change the Weather History Date:

Thursday, March 28, 2013

  Actual Average Record
Temperature  
Mean Temperature 36 °F -  
Max Temperature 39 °F 39 °F 48 °F (1969)
Min Temperature 32 °F 30 °F 17 °F (1975)
Degree Days  
Heating Degree Days 29    
Moisture  
Dew Point 29 °F    
Average Humidity 78    
Maximum Humidity 100    
Minimum Humidity 60    
Precipitation  
Precipitation 0.01 in - - ()
Sea Level Pressure  
Sea Level Pressure 29.40 in    
Wind  
Wind Speed 13 mph (NNW)    
Max Wind Speed 32 mph    
Max Gust Speed 43 mph    
Visibility 9 miles    
Events      
Averages and records for this station are not official NWS values.
T = Trace of Precipitation, MM = Missing Value Source: NWS Daily Summary

Daily Weather History Graph

Daily Weather History Graph

Search for Another Location

Airport or City:

Trip Planner

Search our weather history database for the weather conditions in past years. The results will help you decide how hot, cold, wet, or windy it might be!

Date:

Astronomy

Mar. 28, 2013 Rise Set
Actual Time 8:29 AM HADT 9:14 PM HADT
Civil Twilight 7:55 AM HADT 9:48 PM HADT
Nautical Twilight 7:14 AM HADT 10:29 PM HADT
Astronomical Twilight 6:31 AM HADT 11:12 PM HADT
Moon 11:43 PM HADT (3/28) 8:51 AM HADT (3/28)
Length of Visible Light 13h 52m
Length of Day
12h 44m
Full, 97% of the Moon is Illuminated
Mar 28
Full
Apr 2
Last Quarter
Apr 10
New
Apr 18
First Quarter
Apr 25
Full

Hourly Weather History & Observations

Time (HADT) Temp. Windchill Dew Point Humidity Pressure Visibility Wind Dir Wind Speed Gust Speed Precip Events Conditions
12:16 AM 33.8 °F - 32.0 °F 93% 29.01 in 10.0 mi Calm Calm - N/A   Scattered Clouds
12:36 AM 33.8 °F - 30.2 °F 87% 29.01 in 10.0 mi Calm Calm - N/A   Clear
12:56 AM 33.8 °F 29.6 °F 30.2 °F 87% 29.02 in 10.0 mi SW 4.6 mph - N/A   Mostly Cloudy
1:16 AM 33.8 °F - 32.0 °F 93% 29.03 in 8.0 mi Calm Calm - N/A   Overcast
1:36 AM 33.8 °F - 33.8 °F 100% 29.03 in 7.0 mi Calm Calm - N/A   Overcast
1:56 AM 33.8 °F 27.0 °F 32.0 °F 93% 29.04 in 10.0 mi NW 8.1 mph - N/A   Mostly Cloudy
2:16 AM 35.6 °F 30.7 °F 30.2 °F 81% 29.05 in 10.0 mi NW 5.8 mph - N/A   Mostly Cloudy
2:36 AM 33.8 °F 27.0 °F 30.2 °F 87% 29.06 in 10.0 mi NNW 8.1 mph - N/A   Mostly Cloudy
2:56 AM 35.6 °F 28.0 °F 32.0 °F 87% 29.07 in 9.0 mi NW 10.4 mph - N/A   Overcast
3:16 AM 35.6 °F 26.6 °F 32.0 °F 87% 29.08 in 10.0 mi NNW 13.8 mph - N/A   Overcast
3:36 AM 35.6 °F 27.5 °F 32.0 °F 87% 29.09 in 8.0 mi NNW 11.5 mph - N/A   Overcast
3:56 AM 35.6 °F 25.9 °F 32.0 °F 87% 29.10 in 5.0 mi NNW 16.1 mph 20.7 mph N/A   Overcast
4:16 AM 35.6 °F 26.2 °F 32.0 °F 87% 29.11 in 10.0 mi NNW 15.0 mph - N/A   Overcast
4:36 AM 35.6 °F 27.1 °F 32.0 °F 87% 29.12 in 10.0 mi NNW 12.7 mph - N/A   Overcast
4:56 AM 35.6 °F 26.2 °F 30.2 °F 81% 29.13 in 7.0 mi NNW 15.0 mph 23.0 mph N/A   Overcast
5:16 AM 35.6 °F 32.8 °F 32.0 °F 87% 29.14 in 9.0 mi WSW 3.5 mph - 0.01 in   Overcast
5:36 AM 35.6 °F 27.5 °F 30.2 °F 81% 29.15 in 8.0 mi NW 11.5 mph 16.1 mph 0.01 in   Overcast
5:56 AM 35.6 °F 26.6 °F 30.2 °F 81% 29.15 in 10.0 mi NNW 13.8 mph 17.3 mph 0.01 in   Mostly Cloudy
6:16 AM 35.6 °F 27.5 °F 32.0 °F 87% 29.17 in 10.0 mi NNW 11.5 mph 20.7 mph N/A   Mostly Cloudy
6:36 AM 35.6 °F 26.2 °F 30.2 °F 81% 29.17 in 10.0 mi NW 15.0 mph 20.7 mph N/A   Mostly Cloudy
6:56 AM 35.6 °F 27.1 °F 30.2 °F 81% 29.18 in 10.0 mi NNW 12.7 mph 20.7 mph N/A   Overcast
7:16 AM 35.6 °F 25.5 °F 30.2 °F 81% 29.19 in 10.0 mi NNW 17.3 mph 21.9 mph N/A   Overcast
7:36 AM 35.6 °F 26.2 °F 32.0 °F 87% 29.21 in 10.0 mi NNW 15.0 mph 20.7 mph N/A   Overcast
7:56 AM 35.6 °F 24.0 °F 30.2 °F 81% 29.22 in 8.0 mi NNW 23.0 mph 31.1 mph N/A   Overcast
8:16 AM 35.6 °F 23.2 °F 30.2 °F 81% 29.22 in 10.0 mi NNW 26.5 mph 34.5 mph N/A   Overcast
8:36 AM 35.6 °F 22.3 °F 30.2 °F 81% 29.23 in 9.0 mi NNW 31.1 mph 42.6 mph N/A   Overcast
8:56 AM 35.6 °F 24.0 °F 32.0 °F 87% 29.26 in 7.0 mi NNW 23.0 mph 40.3 mph N/A   Overcast
9:16 AM 35.6 °F 22.7 °F 30.2 °F 81% 29.26 in 3.0 mi NNW 28.8 mph 36.8 mph N/A   Overcast
11:16 AM 37.4 °F 25.2 °F 30.2 °F 75% 29.35 in 9.0 mi NNW 28.8 mph 39.1 mph N/A   Mostly Cloudy
11:36 AM 37.4 °F 25.4 °F 30.2 °F 75% 29.37 in 10.0 mi NNW 27.6 mph 34.5 mph N/A   Overcast
11:56 AM 37.4 °F 25.4 °F 30.2 °F 75% 29.38 in 10.0 mi NNW 27.6 mph 40.3 mph N/A   Overcast
12:16 PM 37.4 °F 25.0 °F 30.2 °F 75% 29.38 in 10.0 mi NNW 29.9 mph 38.0 mph N/A   Mostly Cloudy
12:36 PM 37.4 °F 24.6 °F 30.2 °F 75% 29.40 in 10.0 mi NNW 32.2 mph 40.3 mph N/A   Mostly Cloudy
12:56 PM 37.4 °F 24.8 °F 30.2 °F 75% 29.41 in 10.0 mi NNW 31.1 mph 39.1 mph N/A   Mostly Cloudy
1:16 PM 37.4 °F 25.9 °F 28.4 °F 70% 29.43 in 10.0 mi NNW 25.3 mph 35.7 mph N/A   Overcast
1:36 PM 37.4 °F 28.2 °F 28.4 °F 70% 29.46 in 10.0 mi NNW 16.1 mph 29.9 mph N/A   Mostly Cloudy
1:56 PM 37.4 °F 27.8 °F 28.4 °F 70% 29.48 in 10.0 mi NW 17.3 mph 23.0 mph N/A   Mostly Cloudy
2:16 PM 37.4 °F 28.9 °F 28.4 °F 70% 29.50 in 10.0 mi NW 13.8 mph 21.9 mph N/A   Overcast
2:36 PM 37.4 °F 29.3 °F 30.2 °F 75% 29.50 in 10.0 mi NNW 12.7 mph 23.0 mph N/A   Overcast
2:56 PM 37.4 °F 28.9 °F 30.2 °F 75% 29.51 in 10.0 mi NNW 13.8 mph 24.2 mph N/A   Overcast
3:16 PM 39.2 °F 30.2 °F 32.0 °F 75% 29.52 in 10.0 mi NNW 17.3 mph 26.5 mph N/A   Overcast
3:36 PM 37.4 °F 28.5 °F 30.2 °F 75% 29.53 in 10.0 mi NNW 15.0 mph 25.3 mph N/A   Mostly Cloudy
3:56 PM 37.4 °F 26.6 °F 30.2 °F 75% 29.54 in 10.0 mi NNW 21.9 mph 27.6 mph N/A   Overcast
4:16 PM 37.4 °F 27.5 °F 28.4 °F 70% 29.55 in 10.0 mi NNW 18.4 mph 29.9 mph N/A   Overcast
4:36 PM 37.4 °F 27.2 °F 28.4 °F 70% 29.56 in 10.0 mi NW 19.6 mph 31.1 mph N/A   Overcast
4:56 PM 37.4 °F 26.6 °F 28.4 °F 70% 29.57 in 10.0 mi NNW 21.9 mph 27.6 mph N/A   Mostly Cloudy
5:16 PM 37.4 °F 25.9 °F 28.4 °F 70% 29.57 in 10.0 mi NNW 25.3 mph 29.9 mph N/A   Mostly Cloudy
5:36 PM 37.4 °F 26.1 °F 28.4 °F 70% 29.58 in 10.0 mi NNW 24.2 mph 31.1 mph N/A   Mostly Cloudy
5:56 PM 37.4 °F 26.4 °F 26.6 °F 65% 29.59 in 10.0 mi NNW 23.0 mph 35.7 mph N/A   Mostly Cloudy
6:16 PM 37.4 °F 26.9 °F 24.8 °F 60% 29.60 in 10.0 mi NNW 20.7 mph 38.0 mph N/A   Mostly Cloudy
6:36 PM 35.6 °F 23.4 °F 28.4 °F 75% 29.62 in 8.0 mi NW 25.3 mph 33.4 mph N/A   Mostly Cloudy
6:56 PM 35.6 °F 23.7 °F 28.4 °F 75% 29.63 in 1.5 mi NNW 24.2 mph 29.9 mph N/A   Overcast
7:16 PM 33.8 °F 22.8 °F 28.4 °F 81% 29.65 in 0.8 mi NNW 18.4 mph 34.5 mph N/A   Overcast
7:36 PM 33.8 °F 22.2 °F 28.4 °F 81% 29.66 in 3.0 mi NW 20.7 mph 29.9 mph N/A   Mostly Cloudy
7:56 PM 33.8 °F 21.3 °F 26.6 °F 75% 29.67 in 2.5 mi NNW 24.2 mph 32.2 mph N/A   Mostly Cloudy
8:16 PM 35.6 °F 24.5 °F 28.4 °F 75% 29.69 in 4.0 mi NNW 20.7 mph 27.6 mph N/A   Overcast
8:36 PM 33.8 °F 23.5 °F 28.4 °F 81% 29.70 in 10.0 mi NNW 16.1 mph 27.6 mph N/A   Mostly Cloudy
8:56 PM 33.8 °F 21.6 °F 28.4 °F 81% 29.71 in 3.0 mi NNW 23.0 mph 29.9 mph N/A   Overcast
9:16 PM 33.8 °F 22.5 °F 26.6 °F 75% 29.73 in 2.5 mi NNW 19.6 mph 32.2 mph N/A   Overcast
9:36 PM 33.8 °F 21.6 °F 26.6 °F 75% 29.74 in 8.0 mi NNW 23.0 mph 28.8 mph N/A   Overcast
9:56 PM 33.8 °F 24.3 °F 24.8 °F 70% 29.76 in 10.0 mi NW 13.8 mph 33.4 mph N/A   Overcast
10:16 PM 33.8 °F 23.5 °F 24.8 °F 70% 29.78 in 10.0 mi NW 16.1 mph 21.9 mph N/A   Overcast
10:36 PM 33.8 °F 23.9 °F 23.0 °F 65% 29.79 in 10.0 mi NNW 15.0 mph 25.3 mph N/A   Overcast
10:56 PM 33.8 °F 25.3 °F 24.8 °F 70% 29.80 in 10.0 mi WNW 11.5 mph 26.5 mph N/A   Overcast
11:16 PM 33.8 °F 23.2 °F 24.8 °F 70% 29.81 in 10.0 mi NW 17.3 mph 26.5 mph N/A   Mostly Cloudy
11:36 PM 33.8 °F 23.9 °F 23.0 °F 65% 29.82 in 10.0 mi NW 15.0 mph 27.6 mph N/A   Overcast
11:56 PM 32.0 °F 19.8 °F 24.8 °F 75% 29.83 in 10.0 mi NNW 20.7 mph 27.6 mph N/A   Overcast